Weather History for Siren, WI

Change the Weather History Date:

Monday, January 21, 2013

  Actual Average Record
Temperature  
Mean Temperature -9 °F -  
Max Temperature -5 °F - - ()
Min Temperature -13 °F - - ()
Degree Days  
Heating Degree Days 74    
Moisture  
Dew Point -19 °F    
Average Humidity 64    
Maximum Humidity 77    
Minimum Humidity 50    
Precipitation  
Precipitation 0.00 in - - ()
Sea Level Pressure  
Sea Level Pressure 30.23 in    
Wind  
Wind Speed 8 mph (NW)    
Max Wind Speed 14 mph    
Max Gust Speed 21 mph    
Visibility 10 miles    
Events Snow    
T = Trace of Precipitation, MM = Missing Value Source: NWS Daily Summary

Daily Weather History Graph

Daily Weather History Graph

Search for Another Location

Airport:

Trip Planner

Search our weather history database for the weather conditions in past years. The results will help you decide how hot, cold, wet, or windy it might be!

Date:

Astronomy

Jan. 21, 2013 Rise Set
Actual Time 7:42 AM CST 4:59 PM CST
Civil Twilight 7:09 AM CST 5:32 PM CST
Nautical Twilight 6:33 AM CST 6:09 PM CST
Astronomical Twilight 5:57 AM CST 6:44 PM CST
Moon 12:39 PM CST (1/21) 3:11 AM CST (1/21)
Length of Visible Light 10h 23m
Length of Day
9h 17m
Waxing Gibbous, 75% of the Moon is Illuminated
Jan 21
Waxing Gibbous
Jan 26
Full
Feb 3
Last Quarter
Feb 10
New
Feb 17
First Quarter

Hourly Weather History & Observations

Time (CST) Temp. Windchill Dew Point Humidity Pressure Visibility Wind Dir Wind Speed Gust Speed Precip Events Conditions
12:15 AM -5.8 °F -21.2 °F -13.0 °F 71% 30.20 in 10.0 mi NW 8.1 mph - N/A   Scattered Clouds
12:35 AM -5.8 °F -22.4 °F -13.0 °F 71% 30.20 in 10.0 mi NNW 9.2 mph - N/A   Mostly Cloudy
12:55 AM -5.8 °F -19.9 °F -13.0 °F 71% 30.21 in 10.0 mi NNW 6.9 mph - N/A   Scattered Clouds
1:15 AM -5.8 °F -19.9 °F -13.0 °F 71% 30.21 in 10.0 mi NNW 6.9 mph - N/A   Mostly Cloudy
1:35 AM -5.8 °F -21.2 °F -13.0 °F 71% 30.21 in 3.0 mi NNW 8.1 mph - N/A   Haze
1:55 AM -7.6 °F -23.4 °F -13.0 °F 77% 30.21 in 10.0 mi NNW 8.1 mph - N/A   Mostly Cloudy
2:15 AM -7.6 °F -23.4 °F -14.8 °F 71% 30.22 in 10.0 mi NW 8.1 mph - N/A   Scattered Clouds
2:35 AM -7.6 °F -22.1 °F -14.8 °F 71% 30.22 in 4.0 mi NNW 6.9 mph - N/A Snow Light Snow
2:55 AM -7.6 °F -24.6 °F -14.8 °F 71% 30.22 in 7.0 mi NW 9.2 mph - N/A   Mostly Cloudy
3:15 AM -9.4 °F -25.6 °F -14.8 °F 77% 30.22 in 10.0 mi NW 8.1 mph - N/A   Scattered Clouds
3:35 AM -9.4 °F -26.8 °F -14.8 °F 77% 30.22 in 10.0 mi NW 9.2 mph - N/A   Scattered Clouds
3:55 AM -9.4 °F -26.8 °F -16.6 °F 71% 30.22 in 10.0 mi NW 9.2 mph - N/A   Scattered Clouds
4:15 AM -9.4 °F -26.8 °F -16.6 °F 71% 30.22 in 10.0 mi NW 9.2 mph - N/A   Clear
4:35 AM -9.4 °F -27.9 °F -18.4 °F 65% 30.22 in 10.0 mi NW 10.4 mph - N/A   Clear
4:55 AM -9.4 °F -30.6 °F -20.2 °F 59% 30.22 in 10.0 mi NNW 13.8 mph 17.3 mph N/A   Clear
5:15 AM -11.2 °F -30.1 °F -22.0 °F 59% 30.22 in 10.0 mi NW 10.4 mph - N/A   Clear
5:35 AM -11.2 °F -31.1 °F -22.0 °F 59% 30.22 in 10.0 mi NNW 11.5 mph - N/A   Clear
5:55 AM -13.0 °F -33.4 °F -22.0 °F 64% 30.23 in 10.0 mi NW 11.5 mph - N/A   Clear
6:15 AM -13.0 °F -33.4 °F -22.0 °F 64% 30.23 in 10.0 mi NW 11.5 mph - N/A   Clear
6:35 AM -13.0 °F -33.4 °F -22.0 °F 64% 30.24 in 10.0 mi NW 11.5 mph 18.4 mph N/A   Clear
6:55 AM -13.0 °F -31.3 °F -22.0 °F 64% 30.23 in 10.0 mi NNW 9.2 mph - N/A   Clear
7:15 AM -13.0 °F -30.0 °F -22.0 °F 64% 30.24 in 10.0 mi NW 8.1 mph - N/A   Clear
7:35 AM -13.0 °F -25.1 °F -22.0 °F 64% 30.24 in 10.0 mi NW 4.6 mph - N/A   Clear
7:55 AM -13.0 °F -31.3 °F -22.0 °F 64% 30.25 in 10.0 mi NNW 9.2 mph - N/A   Clear
8:15 AM -13.0 °F -28.6 °F -22.0 °F 64% 30.25 in 10.0 mi NW 6.9 mph - N/A   Clear
8:35 AM -13.0 °F -27.0 °F -22.0 °F 64% 30.26 in 10.0 mi NW 5.8 mph - N/A   Clear
8:55 AM -13.0 °F -30.0 °F -22.0 °F 64% 30.26 in 10.0 mi NW 8.1 mph - N/A   Clear
9:15 AM -13.0 °F -32.4 °F -22.0 °F 64% 30.27 in 10.0 mi NNW 10.4 mph 17.3 mph N/A   Clear
9:55 AM -9.4 °F -26.8 °F -22.0 °F 54% 30.27 in 10.0 mi NW 9.2 mph - N/A   Clear
10:15 AM -9.4 °F -27.9 °F -22.0 °F 54% 30.27 in 10.0 mi NNW 10.4 mph 18.4 mph N/A   Clear
10:35 AM -9.4 °F -28.9 °F -22.0 °F 54% 30.27 in 10.0 mi NNW 11.5 mph 20.7 mph N/A   Clear
10:55 AM -9.4 °F -30.6 °F -22.0 °F 54% 30.27 in 10.0 mi NNW 13.8 mph - N/A   Clear
11:15 AM -7.6 °F -26.6 °F -22.0 °F 50% 30.26 in 10.0 mi NW 11.5 mph - N/A   Clear
11:35 AM -7.6 °F -28.3 °F -22.0 °F 50% 30.25 in 10.0 mi NW 13.8 mph 18.4 mph N/A   Scattered Clouds
11:55 AM -7.6 °F -26.6 °F -22.0 °F 50% 30.25 in 10.0 mi NW 11.5 mph 19.6 mph N/A   Mostly Cloudy
12:15 PM -7.6 °F -25.7 °F -22.0 °F 50% 30.23 in 10.0 mi NW 10.4 mph 19.6 mph N/A   Scattered Clouds
12:35 PM -7.6 °F -28.3 °F -22.0 °F 50% 30.22 in 10.0 mi NW 13.8 mph 18.4 mph N/A   Scattered Clouds
12:55 PM -7.6 °F -26.6 °F -20.2 °F 54% 30.22 in 10.0 mi NW 11.5 mph 16.1 mph N/A   Mostly Cloudy
1:15 PM -7.6 °F -25.7 °F -20.2 °F 54% 30.21 in 10.0 mi WNW 10.4 mph 16.1 mph N/A   Mostly Cloudy
1:35 PM -5.8 °F -23.4 °F -18.4 °F 55% 30.21 in 10.0 mi WNW 10.4 mph 17.3 mph N/A   Mostly Cloudy
1:55 PM -5.8 °F -25.2 °F -18.4 °F 55% 30.21 in 10.0 mi WNW 12.7 mph 16.1 mph N/A   Overcast
2:15 PM -5.8 °F -23.4 °F -20.2 °F 50% 30.20 in 10.0 mi WNW 10.4 mph - N/A   Mostly Cloudy
2:35 PM -5.8 °F -26.0 °F -18.4 °F 55% 30.21 in 10.0 mi NNW 13.8 mph 18.4 mph N/A   Scattered Clouds
2:55 PM -5.8 °F -23.4 °F -18.4 °F 55% 30.21 in 10.0 mi WNW 10.4 mph - N/A   Scattered Clouds
3:15 PM -5.8 °F -23.4 °F -18.4 °F 55% 30.21 in 10.0 mi NW 10.4 mph 17.3 mph N/A   Scattered Clouds
3:35 PM -5.8 °F -24.4 °F -18.4 °F 55% 30.21 in 10.0 mi NW 11.5 mph - N/A   Scattered Clouds
3:55 PM -5.8 °F -22.4 °F -18.4 °F 55% 30.21 in 10.0 mi NW 9.2 mph - N/A   Scattered Clouds
4:15 PM -5.8 °F -18.4 °F -18.4 °F 55% 30.21 in 10.0 mi NW 5.8 mph - N/A   Mostly Cloudy
4:35 PM -5.8 °F -16.7 °F -16.6 °F 60% 30.21 in 10.0 mi West 4.6 mph - N/A   Mostly Cloudy
4:55 PM -7.6 °F - -14.8 °F 71% 30.22 in 5.0 mi Calm Calm - N/A   Haze
5:15 PM -7.6 °F - -14.8 °F 71% 30.22 in 10.0 mi Calm Calm - N/A   Clear
5:35 PM -7.6 °F - -16.6 °F 65% 30.22 in 10.0 mi Calm Calm - N/A   Clear
5:55 PM -7.6 °F -16.5 °F -16.6 °F 65% 30.22 in 10.0 mi WNW 3.5 mph - N/A   Clear
6:15 PM -9.4 °F - -16.6 °F 71% 30.22 in 10.0 mi Calm Calm - N/A   Clear
6:55 PM -9.4 °F - -18.4 °F 65% 30.23 in 10.0 mi Calm Calm - N/A   Clear
7:15 PM -9.4 °F - -18.4 °F 65% 30.23 in 10.0 mi Calm Calm - N/A   Clear
7:35 PM -9.4 °F - -18.4 °F 65% 30.23 in 10.0 mi Calm Calm - N/A   Clear
7:55 PM -9.4 °F - -18.4 °F 65% 30.23 in 10.0 mi Calm Calm - N/A   Clear
8:15 PM -9.4 °F - -18.4 °F 65% 30.23 in 10.0 mi Calm Calm - N/A   Clear
8:35 PM -11.2 °F - -18.4 °F 70% 30.23 in 10.0 mi Calm Calm - N/A   Clear
8:55 PM -11.2 °F - -18.4 °F 70% 30.24 in 10.0 mi Calm Calm - N/A   Clear
9:15 PM -11.2 °F -20.6 °F -18.4 °F 70% 30.24 in 10.0 mi West 3.5 mph - N/A   Clear
9:35 PM -11.2 °F -20.6 °F -18.4 °F 70% 30.25 in 10.0 mi WNW 3.5 mph - N/A   Clear
9:55 PM -11.2 °F -23.0 °F -18.4 °F 70% 30.25 in 10.0 mi WNW 4.6 mph - N/A   Clear
10:15 PM -11.2 °F -23.0 °F -18.4 °F 70% 30.25 in 10.0 mi WNW 4.6 mph - N/A   Clear
10:35 PM -11.2 °F -23.0 °F -18.4 °F 70% 30.25 in 10.0 mi WNW 4.6 mph - N/A   Clear
10:55 PM -11.2 °F -23.0 °F -18.4 °F 70% 30.25 in 10.0 mi WNW 4.6 mph - N/A   Clear
11:15 PM -13.0 °F -22.7 °F -18.4 °F 77% 30.25 in 10.0 mi WNW 3.5 mph - N/A   Clear
11:35 PM -13.0 °F - -18.4 °F 77% 30.25 in 10.0 mi Calm Calm - N/A   Clear
11:55 PM -13.0 °F -25.1 °F -18.4 °F 77% 30.25 in 10.0 mi WNW 4.6 mph - N/A   Clear